Tracking 29892 objects as of 21-Nov-2024
HD Live streaming from Space Station
objects crossing your sky now

OBJECT A

Track OBJECT A now!
10-day predictions


NORAD ID: 59810
Int'l Code: 2024-095A
Perigee: 531.9 km
Apogee: 541.2 km
Inclination: 97.6 °
Period: 95.2 minutes
Semi major axis: 6907 km
RCS: Unknown
Launch date: May 21, 2024
Source: People's Republic of China (PRC)
Launch site: Jiuquan Satellite Launch Center, China (JSC)
Your satellite tracking list
Your tracking list is empty




NASA's NSSDC Master Catalog

Two Line Element Set (TLE):
1 59810U 24095A   24326.13888221  .00011063  00000-0  64338-3 0  9991
2 59810  97.5875  40.6294 0006765  91.7540 268.4465 15.12221390 27810
Source of the keplerian elements: AFSPC